| time (UTC) | temp F | wind direction | speed knots | gust knots | rain 1hr in | rain 24hr in | rain mn in | humidity % | barometer mb |
| 20260506100242 | 73 | 245 | 6.1 | 10.4 | 0.00 | 0.00 | 0.00 | 46 | 987.6 |
| 20260506095240 | 73 | 182 | 4.3 | 10.4 | 0.00 | 0.00 | 0.00 | 48 | 987.3 |
| 20260506094739 | 72 | 207 | 4.3 | 7.0 | 0.00 | 0.00 | 0.00 | 51 | 987.3 |
| 20260506094239 | 72 | 231 | 4.3 | 7.0 | 0.00 | 0.00 | 0.00 | 51 | 987.6 |
| 20260506093739 | 71 | 174 | 5.2 | 9.6 | 0.00 | 0.00 | 0.00 | 49 | 987.6 |
| 20260506093239 | 71 | 201 | 5.2 | 9.6 | 0.00 | 0.00 | 0.00 | 53 | 987.6 |
| 20260506092740 | 71 | 234 | 4.3 | 8.7 | 0.00 | 0.00 | 0.00 | 53 | 987.8 |
| 20260506092238 | 70 | 208 | 5.2 | 8.7 | 0.00 | 0.00 | 0.00 | 51 | 987.7 |
| 20260506091738 | 70 | 227 | 4.3 | 12.2 | 0.00 | 0.00 | 0.00 | 49 | 987.9 |
| 20260506091239 | 71 | 235 | 2.6 | 6.1 | 0.00 | 0.00 | 0.00 | 54 | 987.8 |
| 20260506090737 | 70 | 219 | 3.5 | 4.3 | 0.00 | 0.00 | 0.00 | 54 | 987.6 |
| 20260506090238 | 70 | 208 | 5.2 | 7.8 | 0.00 | 0.00 | 0.00 | 52 | 987.6 |
| 20260506085737 | 70 | 162 | 5.2 | 9.6 | 0.00 | 0.00 | 0.00 | 53 | 987.6 |
| 20260506085236 | 70 | 153 | 5.2 | 8.7 | 0.00 | 0.00 | 0.00 | 53 | 987.6 |
| 20260506084738 | 70 | 224 | 5.2 | 7.8 | 0.00 | 0.00 | 0.00 | 53 | 987.7 |
| 20260506084236 | 70 | 264 | 5.2 | 7.8 | 0.00 | 0.00 | 0.00 | 52 | 987.5 |
| 20260506083735 | 70 | 229 | 5.2 | 10.4 | 0.00 | 0.00 | 0.00 | 52 | 987.7 |
| 20260506083235 | 70 | 245 | 5.2 | 10.4 | 0.00 | 0.00 | 0.00 | 53 | 987.7 |
| 20260506082735 | 69 | 257 | 6.1 | 9.6 | 0.00 | 0.00 | 0.00 | 54 | 987.6 |
| 20260506082235 | 69 | 176 | 5.2 | 10.4 | 0.00 | 0.00 | 0.00 | 53 | 987.6 |
| 20260506081734 | 70 | 257 | 2.6 | 7.8 | 0.00 | 0.00 | 0.00 | 53 | 987.5 |
| 20260506080734 | 69 | 267 | 2.6 | 7.0 | 0.00 | 0.00 | 0.00 | 53 | 987.4 |
| 20260506080235 | 69 | 269 | 1.7 | 4.3 | 0.00 | 0.00 | 0.00 | 55 | 987.3 |
| 20260506073232 | 66 | 264 | 3.5 | 7.8 | 0.00 | 0.00 | 0.00 | 56 | 987.4 |
| 20260506072731 | 66 | 224 | 3.5 | 5.2 | 0.00 | 0.00 | 0.00 | 55 | 987.4 |
| 20260506072231 | 66 | 290 | 4.3 | 7.0 | 0.00 | 0.00 | 0.00 | 58 | 987.4 |
| 20260506071731 | 66 | 252 | 4.3 | 7.0 | 0.00 | 0.00 | 0.00 | 56 | 987.4 |
| 20260506070732 | 66 | 225 | 3.5 | 6.1 | 0.00 | 0.00 | 0.00 | 57 | 987.5 |
| 20260506070232 | 65 | 227 | 2.6 | 7.0 | 0.00 | 0.00 | 0.00 | 56 | 987.4 |
| 20260506062228 | 61 | 109 | 3.5 | 6.1 | 0.00 | 0.00 | 0.00 | 60 | 987.2 |
| 20260506061728 | 60 | 83 | 4.3 | 5.2 | 0.00 | 0.00 | 0.00 | 61 | 987.2 |
| 20260506061227 | 60 | 115 | 4.3 | 7.0 | 0.00 | 0.00 | 0.00 | 61 | 987.1 |
| 20260506060727 | 60 | 113 | 4.3 | 6.1 | 0.00 | 0.00 | 0.00 | 60 | 987.1 |
| 20260506060227 | 60 | 105 | 5.2 | 9.6 | 0.00 | 0.00 | 0.00 | 61 | 987.1 |
| 20260506051224 | 57 | 86 | 5.2 | 7.8 | 0.00 | 0.00 | 0.00 | 65 | 987.0 |
| 20260506050724 | 56 | 84 | 6.1 | 8.7 | 0.00 | 0.00 | 0.00 | 64 | 986.9 |
| 20260506050225 | 56 | 110 | 6.1 | 7.8 | 0.00 | 0.00 | 0.00 | 64 | 986.9 |
| 20260506044722 | 55 | 105 | 4.3 | 6.1 | 0.00 | 0.00 | 0.00 | 67 | 986.8 |
| 20260506044222 | 55 | 82 | 4.3 | 7.0 | 0.00 | 0.00 | 0.00 | 66 | 986.8 |
| 20260506043722 | 55 | 98 | 3.5 | 7.0 | 0.00 | 0.00 | 0.00 | 67 | 986.9 |
| 20260506043222 | 55 | 79 | 1.7 | 3.5 | 0.00 | 0.00 | 0.00 | 67 | 986.9 |
| 20260506042721 | 54 | 88 | 2.6 | 2.6 | 0.00 | 0.00 | 0.00 | 68 | 986.9 |
| 20260506042221 | 54 | 80 | 6.1 | 7.8 | 0.00 | 0.00 | 0.00 | 68 | 986.8 |
| 20260506041721 | 53 | 84 | 7.8 | 9.6 | 0.00 | 0.00 | 0.00 | 68 | 986.6 |
| 20260506041220 | 53 | 82 | 7.8 | 9.6 | 0.00 | 0.00 | 0.00 | 69 | 986.6 |
| 20260506040720 | 53 | 93 | 7.8 | 9.6 | 0.00 | 0.00 | 0.00 | 69 | 986.6 |
| 20260506040220 | 53 | 86 | 7.8 | 10.4 | 0.00 | 0.00 | 0.00 | 69 | 986.4 |
| 20260506035720 | 53 | 92 | 7.8 | 9.6 | 0.00 | 0.00 | 0.00 | 69 | 986.4 |
| 20260506035219 | 52 | 93 | 8.7 | 10.4 | 0.00 | 0.00 | 0.00 | 69 | 986.4 |
| 20260506034719 | 52 | 89 | 9.6 | 11.3 | 0.00 | 0.00 | 0.00 | 70 | 986.3 |
| 20260506034219 | 52 | 93 | 8.7 | 11.3 | 0.00 | 0.00 | 0.00 | 70 | 986.3 |
| 20260506033718 | 52 | 92 | 8.7 | 10.4 | 0.00 | 0.00 | 0.00 | 70 | 986.4 |
| 20260506033218 | 52 | 91 | 8.7 | 10.4 | 0.00 | 0.00 | 0.00 | 71 | 986.4 |
| 20260506032718 | 52 | 81 | 9.6 | 12.2 | 0.00 | 0.00 | 0.00 | 71 | 986.3 |
| 20260506032218 | 52 | 75 | 8.7 | 12.2 | 0.00 | 0.00 | 0.00 | 70 | 986.3 |
| 20260506031717 | 52 | 85 | 7.8 | 11.3 | 0.00 | 0.00 | 0.00 | 71 | 986.4 |
| 20260506031217 | 52 | 91 | 7.8 | 10.4 | 0.00 | 0.00 | 0.00 | 70 | 986.3 |
| 20260506030717 | 52 | 104 | 7.8 | 10.4 | 0.00 | 0.00 | 0.00 | 70 | 986.4 |
| 20260506030216 | 52 | 107 | 6.1 | 10.4 | 0.00 | 0.00 | 0.00 | 69 | 986.4 |
| 20260506025716 | 52 | 101 | 6.1 | 7.8 | 0.00 | 0.00 | 0.00 | 69 | 986.3 |
| 20260506025216 | 53 | 94 | 6.1 | 8.7 | 0.00 | 0.00 | 0.00 | 69 | 986.2 |
| 20260506024716 | 54 | 95 | 6.1 | 8.7 | 0.00 | 0.00 | 0.00 | 67 | 986.2 |
| 20260506024215 | 54 | 118 | 6.1 | 10.4 | 0.00 | 0.00 | 0.00 | 66 | 986.2 |
| 20260506023715 | 54 | 112 | 5.2 | 9.6 | 0.00 | 0.00 | 0.00 | 65 | 986.1 |
| 20260506023215 | 55 | 127 | 6.1 | 9.6 | 0.00 | 0.00 | 0.00 | 65 | 986.1 |
| 20260506022714 | 55 | 131 | 7.0 | 10.4 | 0.00 | 0.00 | 0.00 | 64 | 986.0 |
| 20260506022214 | 55 | 101 | 7.0 | 10.4 | 0.00 | 0.00 | 0.00 | 64 | 986.0 |
| 20260506021714 | 55 | 109 | 6.1 | 10.4 | 0.00 | 0.00 | 0.00 | 63 | 985.9 |
| 20260506021214 | 55 | 120 | 5.2 | 7.8 | 0.00 | 0.00 | 0.00 | 63 | 985.9 |
| 20260506020713 | 56 | 131 | 6.1 | 8.7 | 0.00 | 0.00 | 0.00 | 62 | 986.0 |
| 20260506020213 | 56 | 114 | 6.1 | 8.7 | 0.00 | 0.00 | 0.00 | 62 | 986.1 |
| 20260506015713 | 55 | 111 | 4.3 | 7.8 | 0.00 | 0.00 | 0.00 | 64 | 986.2 |
| 20260506015212 | 55 | 209 | 3.5 | 7.0 | 0.00 | 0.00 | 0.00 | 64 | 986.2 |
| 20260506014712 | 55 | 113 | 3.5 | 5.2 | 0.00 | 0.00 | 0.00 | 64 | 986.2 |
| 20260506014212 | 56 | 214 | 3.5 | 7.0 | 0.00 | 0.00 | 0.00 | 63 | 986.3 |
| 20260506013712 | 56 | 117 | 2.6 | 6.1 | 0.00 | 0.00 | 0.00 | 63 | 986.1 |
| 20260506013211 | 56 | 129 | 4.3 | 5.2 | 0.00 | 0.00 | 0.00 | 62 | 986.0 |
| 20260506012711 | 57 | 136 | 7.0 | 8.7 | 0.00 | 0.00 | 0.00 | 61 | 985.8 |
| 20260506012211 | 57 | 110 | 7.8 | 9.6 | 0.00 | 0.00 | 0.00 | 61 | 985.8 |
| 20260506011710 | 57 | 103 | 8.7 | 10.4 | 0.00 | 0.00 | 0.00 | 61 | 985.6 |
| 20260506011210 | 57 | 115 | 8.7 | 11.3 | 0.00 | 0.00 | 0.00 | 61 | 985.7 |
| 20260506010710 | 57 | 103 | 7.8 | 11.3 | 0.00 | 0.00 | 0.00 | 60 | 985.7 |
| 20260506010210 | 58 | 108 | 7.8 | 9.6 | 0.00 | 0.00 | 0.00 | 60 | 985.6 |
| 20260506005710 | 58 | 108 | 7.8 | 12.2 | 0.00 | 0.00 | 0.00 | 59 | 985.6 |
| 20260506005210 | 58 | 98 | 7.8 | 10.4 | 0.00 | 0.00 | 0.00 | 59 | 985.6 |
| 20260506004709 | 58 | 105 | 7.8 | 11.3 | 0.00 | 0.00 | 0.00 | 58 | 985.6 |
| 20260506004209 | 59 | 98 | 7.8 | 12.2 | 0.00 | 0.00 | 0.00 | 57 | 985.7 |
| 20260506003708 | 59 | 107 | 7.8 | 10.4 | 0.00 | 0.00 | 0.00 | 57 | 985.5 |
| 20260506003208 | 59 | 103 | 7.0 | 11.3 | 0.00 | 0.00 | 0.00 | 57 | 985.6 |
| 20260506002708 | 59 | 94 | 7.0 | 9.6 | 0.00 | 0.00 | 0.00 | 58 | 985.5 |
| 20260506002207 | 59 | 84 | 7.0 | 9.6 | 0.00 | 0.00 | 0.00 | 57 | 985.6 |
| 20260506001707 | 59 | 102 | 7.0 | 10.4 | 0.00 | 0.00 | 0.00 | 57 | 985.6 |
| 20260506001207 | 59 | 110 | 7.0 | 9.6 | 0.00 | 0.00 | 0.00 | 58 | 985.6 |
| 20260506000707 | 59 | 110 | 7.0 | 10.4 | 0.00 | 0.00 | 0.00 | 58 | 985.6 |
| 20260506000206 | 59 | 115 | 7.0 | 9.6 | 0.00 | 0.00 | 0.00 | 58 | 985.6 |
| 20260505235706 | 59 | 105 | 6.1 | 11.3 | 0.00 | 0.00 | 0.00 | 58 | 985.6 |
| 20260505235206 | 58 | 107 | 5.2 | 8.7 | 0.00 | 0.00 | 0.00 | 59 | 985.6 |
| 20260505234705 | 58 | 134 | 4.3 | 7.0 | 0.00 | 0.00 | 0.00 | 60 | 985.6 |
| 20260505234205 | 58 | 137 | 4.3 | 7.0 | 0.00 | 0.00 | 0.00 | 59 | 985.7 |
| 20260505233705 | 58 | 127 | 4.3 | 7.8 | 0.00 | 0.00 | 0.00 | 59 | 985.7 |
| 20260505233205 | 59 | 115 | 4.3 | 6.1 | 0.00 | 0.00 | 0.00 | 58 | 985.8 |
| 20260505232704 | 59 | 105 | 5.2 | 7.0 | 0.00 | 0.00 | 0.00 | 58 | 985.8 |
| 20260505232204 | 59 | 105 | 6.1 | 7.8 | 0.00 | 0.00 | 0.00 | 58 | 985.7 |
| 20260505231704 | 60 | 105 | 6.1 | 8.7 | 0.00 | 0.00 | 0.00 | 57 | 985.7 |
| 20260505231203 | 60 | 113 | 6.1 | 8.7 | 0.00 | 0.00 | 0.00 | 57 | 985.9 |
| 20260505230703 | 60 | 110 | 7.0 | 8.7 | 0.00 | 0.00 | 0.00 | 56 | 985.8 |
| 20260505230203 | 60 | 119 | 7.0 | 8.7 | 0.00 | 0.00 | 0.00 | 56 | 985.8 |
| 20260505225703 | 60 | 98 | 7.0 | 9.6 | 0.00 | 0.00 | 0.00 | 56 | 985.9 |
| 20260505225202 | 61 | 96 | 7.0 | 9.6 | 0.00 | 0.00 | 0.00 | 55 | 985.9 |
| 20260505224702 | 61 | 101 | 7.0 | 10.4 | 0.00 | 0.00 | 0.00 | 55 | 986.0 |
| 20260505224202 | 61 | 112 | 6.1 | 7.8 | 0.00 | 0.00 | 0.00 | 55 | 986.0 |
| 20260505223701 | 61 | 110 | 6.1 | 8.7 | 0.00 | 0.00 | 0.00 | 55 | 986.1 |
| 20260505223201 | 61 | 101 | 6.1 | 7.0 | 0.00 | 0.00 | 0.00 | 55 | 986.1 |
| 20260505222701 | 61 | 120 | 5.2 | 8.7 | 0.00 | 0.00 | 0.00 | 55 | 986.0 |
| 20260505222201 | 61 | 125 | 5.2 | 7.0 | 0.00 | 0.00 | 0.00 | 56 | 986.1 |
| 20260505221700 | 61 | 98 | 5.2 | 7.8 | 0.00 | 0.00 | 0.00 | 56 | 986.1 |
| 20260505221200 | 61 | 105 | 6.1 | 7.8 | 0.00 | 0.00 | 0.00 | 56 | 986.2 |
| 20260505220700 | 61 | 110 | 5.2 | 8.7 | 0.00 | 0.00 | 0.00 | 55 | 986.1 |
| 20260505220159 | 61 | 93 | 5.2 | 7.8 | 0.00 | 0.00 | 0.00 | 55 | 986.0 |
| 20260505215659 | 61 | 114 | 5.2 | 7.0 | 0.00 | 0.00 | 0.00 | 55 | 986.1 |
| 20260505215159 | 62 | 112 | 5.2 | 7.0 | 0.00 | 0.00 | 0.00 | 55 | 986.0 |
| 20260505214659 | 62 | 113 | 6.1 | 7.8 | 0.00 | 0.00 | 0.00 | 55 | 986.0 |
| 20260505214158 | 62 | 106 | 6.1 | 7.8 | 0.00 | 0.00 | 0.00 | 54 | 985.9 |
| 20260505213658 | 62 | 88 | 6.1 | 7.8 | 0.00 | 0.00 | 0.00 | 54 | 986.0 |
| 20260505213158 | 62 | 106 | 4.3 | 9.6 | 0.00 | 0.00 | 0.00 | 54 | 986.1 |
| 20260505212658 | 61 | 99 | 2.6 | 7.0 | 0.00 | 0.00 | 0.00 | 55 | 986.0 |
| 20260505212157 | 62 | 103 | 2.6 | 3.5 | 0.00 | 0.00 | 0.00 | 54 | 986.0 |
| 20260505211657 | 62 | 98 | 2.6 | 3.5 | 0.00 | 0.00 | 0.00 | 54 | 985.9 |
| 20260505211157 | 62 | 108 | 2.6 | 3.5 | 0.00 | 0.00 | 0.00 | 53 | 986.0 |
| 20260505210656 | 62 | 122 | 2.6 | 3.5 | 0.00 | 0.00 | 0.00 | 53 | 986.0 |
| 20260505210156 | 62 | 121 | 2.6 | 3.5 | 0.00 | 0.00 | 0.00 | 53 | 985.9 |
| 20260505205656 | 63 | 113 | 2.6 | 4.3 | 0.00 | 0.00 | 0.00 | 53 | 986.0 |
| 20260505205155 | 63 | 110 | 2.6 | 4.3 | 0.00 | 0.00 | 0.00 | 53 | 985.9 |
| 20260505204655 | 63 | 108 | 2.6 | 4.3 | 0.00 | 0.00 | 0.00 | 52 | 985.9 |
| 20260505204155 | 63 | 115 | 2.6 | 3.5 | 0.00 | 0.00 | 0.00 | 52 | 985.9 |
| 20260505203655 | 63 | 117 | 3.5 | 4.3 | 0.00 | 0.00 | 0.00 | 52 | 985.9 |
| 20260505203154 | 63 | 105 | 2.6 | 4.3 | 0.00 | 0.00 | 0.00 | 51 | 986.0 |
| 20260505202654 | 63 | 103 | 2.6 | 3.5 | 0.00 | 0.00 | 0.00 | 52 | 986.0 |
| 20260505202154 | 63 | 97 | 1.7 | 3.5 | 0.00 | 0.00 | 0.00 | 52 | 985.9 |
| 20260505201654 | 63 | 103 | 1.7 | 3.5 | 0.00 | 0.00 | 0.00 | 52 | 986.0 |
| 20260505201153 | 63 | 110 | 2.6 | 4.3 | 0.00 | 0.00 | 0.00 | 52 | 986.0 |
| 20260505200653 | 63 | 103 | 1.7 | 3.5 | 0.00 | 0.00 | 0.00 | 51 | 985.9 |
| 20260505200153 | 64 | 108 | 1.7 | 3.5 | 0.00 | 0.00 | 0.00 | 51 | 985.8 |
| 20260505195652 | 64 | 135 | 2.6 | 3.5 | 0.00 | 0.00 | 0.00 | 51 | 985.9 |
| 20260505195152 | 65 | 139 | 2.6 | 4.3 | 0.00 | 0.00 | 0.00 | 50 | 985.9 |
| 20260505194652 | 65 | 110 | 2.6 | 4.3 | 0.00 | 0.00 | 0.00 | 49 | 985.7 |
| 20260505194151 | 66 | 105 | 3.5 | 3.5 | 0.00 | 0.00 | 0.00 | 48 | 985.6 |
| 20260505193651 | 66 | 120 | 3.5 | 4.3 | 0.00 | 0.00 | 0.00 | 48 | 985.7 |
| 20260505193151 | 66 | 98 | 3.5 | 5.2 | 0.00 | 0.00 | 0.00 | 47 | 985.6 |
| 20260505192651 | 66 | 96 | 2.6 | 4.3 | 0.00 | 0.00 | 0.00 | 47 | 985.7 |
| 20260505192150 | 66 | 101 | 2.6 | 4.3 | 0.00 | 0.00 | 0.00 | 48 | 985.7 |
| 20260505191650 | 66 | 108 | 1.7 | 4.3 | 0.00 | 0.00 | 0.00 | 48 | 985.7 |
| 20260505191150 | 66 | 127 | 1.7 | 1.7 | 0.00 | 0.00 | 0.00 | 48 | 985.7 |
| 20260505190650 | 67 | 111 | 2.6 | 3.5 | 0.00 | 0.00 | 0.00 | 47 | 985.6 |
| 20260505190149 | 68 | 113 | 2.6 | 3.5 | 0.00 | 0.00 | 0.00 | 45 | 985.6 |
| 20260505185649 | 68 | 101 | 3.5 | 3.5 | 0.00 | 0.00 | 0.00 | 45 | 985.6 |
| 20260505185149 | 68 | 104 | 3.5 | 5.2 | 0.00 | 0.00 | 0.00 | 45 | 985.7 |
| 20260505184648 | 68 | 109 | 2.6 | 3.5 | 0.00 | 0.00 | 0.00 | 45 | 985.7 |
| 20260505184148 | 69 | 117 | 2.6 | 3.5 | 0.00 | 0.00 | 0.00 | 45 | 985.6 |
| 20260505183648 | 69 | 113 | 2.6 | 3.5 | 0.00 | 0.00 | 0.00 | 44 | 985.6 |
| 20260505183148 | 69 | 118 | 2.6 | 3.5 | 0.00 | 0.00 | 0.00 | 44 | 985.6 |
| 20260505182147 | 70 | 108 | 2.6 | 3.5 | 0.00 | 0.00 | 0.00 | 43 | 985.6 |
| 20260505181647 | 70 | 125 | 2.6 | 3.5 | 0.00 | 0.00 | 0.00 | 42 | 985.5 |
| 20260505181146 | 71 | 115 | 2.6 | 3.5 | 0.00 | 0.00 | 0.00 | 41 | 985.4 |
| 20260505180646 | 71 | 110 | 2.6 | 3.5 | 0.00 | 0.00 | 0.00 | 40 | 985.4 |
| 20260505180147 | 72 | 98 | 1.7 | 2.6 | 0.00 | 0.00 | 0.00 | 39 | 985.5 |
| 20260505175145 | 72 | 127 | 0.9 | 2.6 | 0.00 | 0.00 | 0.00 | 38 | 985.5 |
| 20260505174645 | 73 | 139 | 0.9 | 1.7 | 0.00 | 0.00 | 0.00 | 38 | 985.5 |
| 20260505173646 | 73 | 143 | 0.9 | 1.7 | 0.00 | 0.00 | 0.00 | 37 | 985.5 |
| 20260505172649 | 75 | 135 | 0.9 | 1.7 | 0.00 | 0.00 | 0.00 | 36 | 985.6 |
| 20260505171146 | 76 | 148 | 0.9 | 1.7 | 0.00 | 0.00 | 0.00 | 34 | 985.4 |
| 20260505165143 | 77 | 198 | 1.7 | 3.5 | 0.00 | 0.00 | 0.00 | 34 | 985.6 |
| 20260505164143 | 77 | 202 | 0.9 | 2.6 | 0.00 | 0.00 | 0.00 | 34 | 985.6 |
| 20260505163642 | 77 | 211 | 0.9 | 1.7 | 0.00 | 0.00 | 0.00 | 34 | 985.7 |
| 20260505161143 | 78 | 231 | 3.5 | 5.2 | 0.00 | 0.00 | 0.00 | 31 | 985.8 |
| 20260505160142 | 78 | 199 | 2.6 | 5.2 | 0.00 | 0.00 | 0.00 | 31 | 985.8 |
| 20260505153139 | 79 | 229 | 4.3 | 7.0 | 0.00 | 0.00 | 0.00 | 31 | 986.0 |
| 20260505152639 | 78 | 227 | 4.3 | 8.7 | 0.00 | 0.00 | 0.00 | 29 | 986.1 |
| 20260505152138 | 79 | 224 | 3.5 | 7.8 | 0.00 | 0.00 | 0.00 | 30 | 986.1 |
| 20260505151138 | 79 | 174 | 5.2 | 9.6 | 0.00 | 0.00 | 0.00 | 31 | 986.2 |
| 20260505150137 | 78 | 239 | 4.3 | 10.4 | 0.00 | 0.00 | 0.00 | 29 | 986.2 |
| 20260505140634 | 79 | 259 | 4.3 | 8.7 | 0.00 | 0.00 | 0.00 | 29 | 986.8 |
| 20260505140134 | 78 | 221 | 5.2 | 7.8 | 0.00 | 0.00 | 0.00 | 29 | 986.8 |
| 20260505130130 | 78 | 255 | 3.5 | 9.6 | 0.00 | 0.00 | 0.00 | 30 | 987.5 |
| 20260505124129 | 78 | 234 | 2.6 | 6.1 | 0.00 | 0.00 | 0.00 | 33 | 987.7 |
| 20260505121128 | 76 | 283 | 6.1 | 8.7 | 0.00 | 0.00 | 0.00 | 32 | 988.2 |
| 20260505120127 | 76 | 231 | 6.1 | 9.6 | 0.00 | 0.00 | 0.00 | 33 | 988.3 |
| 20260505115126 | 77 | 243 | 2.6 | 5.2 | 0.00 | 0.00 | 0.00 | 34 | 988.3 |
| 20260505114626 | 76 | 179 | 3.5 | 7.0 | 0.00 | 0.00 | 0.00 | 32 | 988.5 |
| 20260505113625 | 75 | 255 | 5.2 | 7.8 | 0.00 | 0.00 | 0.00 | 32 | 988.6 |
| 20260505113125 | 75 | 291 | 6.1 | 11.3 | 0.00 | 0.00 | 0.00 | 31 | 988.8 |
| 20260505112124 | 75 | 263 | 3.5 | 9.6 | 0.00 | 0.00 | 0.00 | 32 | 988.7 |
| 20260505111624 | 75 | 240 | 2.6 | 6.1 | 0.00 | 0.00 | 0.00 | 33 | 988.6 |
| 20260505111124 | 75 | 15 | 4.3 | 6.1 | 0.00 | 0.00 | 0.00 | 31 | 988.6 |
| 20260505110624 | 76 | 230 | 4.3 | 7.0 | 0.00 | 0.00 | 0.00 | 31 | 988.8 |
| 20260505110123 | 76 | 218 | 3.5 | 7.8 | 0.00 | 0.00 | 0.00 | 34 | 988.7 |
| 20260505102121 | 73 | 243 | 3.5 | 7.8 | 0.00 | 0.00 | 0.00 | 33 | 989.1 |
| 20260505101121 | 73 | 211 | 3.5 | 7.0 | 0.00 | 0.00 | 0.00 | 34 | 989.2 |